This demonstration page uses our WeatherBlox Daily Observations layout. Learn more.

Left ArrowRight Arrow

53.62937, 11.41316

Hourly Observations for September 14, 2021

Temp ( °F °C ) Dew Point ( °F °C ) Humidity (%) Winds ( mph kmh ) Pressure ( in mb ) Visibility ( mi km ) Precip ( " mm )
5:50 am 05:50 Mostly Clear with Mist and Fog 45 7 45 7 100 100 N N/A 30.06 1018 1 2 N/A
6:20 am 06:20 Mostly Clear with Mist and Fog 46 8 45 7 93 93 VRB 1 2 30.06 1018 1 2 N/A
6:50 am 06:50 Mostly Sunny 46 8 46 8 100 100 VRB 1 2 30.06 1018 30 48 N/A
7:20 am 07:20 Partly Cloudy 48 9 48 9 100 100 VRB 1 2 30.06 1018 30 48 N/A
7:50 am 07:50 Partly Cloudy 50 10 50 10 100 100 N N/A 30.06 1018 30 48 N/A
8:20 am 08:20 Mostly Sunny 52 11 52 11 100 100 VRB 1 2 30.06 1018 30 48 N/A
8:50 am 08:50 Mostly Sunny 54 12 54 12 100 100 E 2 4 30.06 1018 30 48 N/A
9:20 am 09:20 Mostly Sunny 55 13 55 13 100 100 VRB 1 2 30.06 1018 30 48 N/A
9:50 am 09:50 Mostly Sunny 59 15 55 13 88 88 VRB 2 4 30.06 1018 30 48 N/A
10:20 am 10:20 Mostly Sunny 61 16 54 12 77 77 ESE 3 6 30.06 1018 7 11 N/A
10:50 am 10:50 Mostly Sunny 63 17 55 13 77 77 E 5 7 30.06 1018 7 11 N/A
11:20 am 11:20 Mostly Sunny 64 18 55 13 73 73 VRB 5 7 30.06 1018 30 48 N/A
11:50 am 11:50 Mostly Sunny 66 19 55 13 68 68 VRB 3 6 30.06 1018 30 48 N/A
12:20 pm 12:20 Mostly Sunny 66 19 54 12 64 64 SE 5 7 30.06 1018 30 48 N/A
12:50 pm 12:50 Partly Cloudy 66 19 55 13 68 68 VRB 2 4 30.06 1018 30 48 N/A
1:20 pm 13:20 Mostly Cloudy 68 20 54 12 60 60 SE 5 7 30.06 1018 30 48 N/A
1:50 pm 13:50 Partly Cloudy 66 19 54 12 64 64 ESE 5 7 30.06 1018 30 48 N/A
2:20 pm 14:20 Partly Cloudy 68 20 55 13 64 64 ESE 3 6 30.03 1017 30 48 N/A
2:50 pm 14:50 Partly Cloudy 70 21 54 12 57 57 VRB 2 4 30.03 1017 30 48 N/A
3:20 pm 15:20 Partly Cloudy 70 21 55 13 60 60 E 3 6 30.03 1017 30 48 N/A
3:50 pm 15:50 Mostly Sunny 70 21 55 13 60 60 ESE 5 7 30.03 1017 30 48 N/A
4:20 pm 16:20 Mostly Sunny 68 20 54 12 60 60 E 8 13 30.00 1016 30 48 N/A
4:50 pm 16:50 Mostly Sunny 70 21 55 13 60 60 E 7 11 30.00 1016 30 48 N/A
5:20 pm 17:20 Mostly Sunny 68 20 55 13 64 64 ESE 5 7 30.00 1016 30 48 N/A
5:50 pm 17:50 Mostly Sunny 68 20 55 13 64 64 E 3 6 30.00 1016 30 48 N/A
6:20 pm 18:20 Mostly Sunny 66 19 57 14 73 73 ENE 6 9 30.00 1016 7 11 N/A
6:50 pm 18:50 Mostly Sunny 66 19 57 14 73 73 ENE 6 9 30.00 1016 7 11 N/A
7:20 pm 19:20 Mostly Sunny 63 17 55 13 77 77 NE 5 7 30.00 1016 7 11 N/A
7:50 pm 19:50 Mostly Clear 61 16 57 14 88 88 ENE 3 6 30.00 1016 7 11 N/A
8:20 pm 20:20 Mostly Clear 59 15 55 13 88 88 ENE 5 7 30.00 1016 7 11 N/A
8:50 pm 20:50 Mostly Clear 57 14 55 13 94 94 ENE 6 9 30.00 1016 7 11 N/A
9:20 pm 21:20 Mostly Clear 57 14 54 12 88 88 E 5 7 30.00 1016 7 11 N/A
9:50 pm 21:50 Mostly Clear 59 15 55 13 88 88 E 5 7 30.00 1016 7 11 N/A

Powered by AerisWeather